Dauntless Aviation
Airports South America Argentina
SABE
AEP

Aeroparque Jorge Newbery

Buenos Aires, ARGENTINA

Airport Info
Suggest Updated Information for this Airport

Location

Latitude / Longitude: 34°33'33"S / 58°24'56"W
  34°33.552'S / 58°24.936'W
  -34.5592 / -58.4156

Nearby radio navigation aids

FDO SAN FERNANDO VOR/DME. 132.7° 10.6nm from FDO to field.
OP AEROPARQUE JORGE NEWBERY NDB. 131.1° 4.3nm from OP to field.

Runway Information

Runway 13 /31

Dimensions: 6890 x 131 ft.
Surface: ASP
 
Runway 13
Runway 31
Latitude: -34.553942 -34.563844
Longitude: -58.425247 -58.407506
Elevation: 18 ft. 18 ft.
Runway true heading: 126.3 306.3
 

Instrument Procedures

  Aerodrome Chart

STARs (Standard Terminal Arrivals)

  STAR Rwy 13/16 SARGO7C KOVUK7C TENIL7C BELGRANO7C
  STAR Rwy 13/16 PAGON7C SAN ANTONIO7C ASADA7C VALOS8C
  STAR Rwy 13/16 SURBO7A KUKEN1C PAPIX1C
  STAR Rwy 31 SURBO2B SARGO7D KOVUK7D TENIL7D BELGRANO7D VALOS7D ASADA7D
  STAR Rwy 31 PAGON7D SAN ANTONIO7D

IAPs (Instrument Approach Procedures)

  VOR (DME) ILS Rwy 13
  VOR (DMS) ILS (DME) Rwy 13
  LI ILS (DME) Rwy 13
  VOR (DME) LO LI Rwy 13
  LI LO LI Rwy 13
  LI Rwy 31
  LI Rwy 31

Departure Procedures

  SID Rwy 13/31 LANDA3B VIBAM38 ATOVO38
  SID Rwy 13/31 EZEIZA8
  SID Rwy 13/31 EL PALOMAR 8
  SID Rwy 13/31 KUKEN7 SURBO7 DORVO7 LA PLAYA7
Satellite photo at:
Airport distance calculator
From:
Weather Reports

METAR

SABE

SABE 261100Z 14013KT 9999 BKN018 10/07 Q1026
SADF
10.6nm W
SADF 261100Z 11009KT 9999 BKN015 BKN100 10/07 Q1025
SAEZ
16.2nm S
SAEZ 261100Z 15010KT 120V200 CAVOK 08/04 Q1026

TAF

SABE
TAF SABE 260500Z 2606/2706 16015KT 9999 SCT015 OVC100 TX13/2618Z TN10/2610Z BECMG 2613/2615 BKN020 OVC050 BECMG 2619/2621 14020G30KT 4000 RA BKN010 OVC045
SADF
10.6nm W
TAF SADF 260500Z 2606/2706 11015KT 9999 SCT015 OVC100 TX13/2618Z TN09/2610Z BECMG 2613/2615 BKN020 OVC050 BECMG 2619/2621 14020G30KT 4000 RA BKN010 OVC045
SAEZ
16.2nm S
TAF SAEZ 260500Z 2606/2706 13010KT 9999 SCT020 TX12/2618Z TN06/2610Z PROB30 2606/2609 7000 -RADZ BKN010 BKN035 BECMG 2611/2614 13015KT 9999 BKN025 BKN040 BECMG 2618/2621 11015G25KT 6000 RA BKN020 OVC035 TEMPO 2701/2706 3000 RA
SUCA
30.3nm NE
TAF SUCA 260510Z 2606/2706 14015KT 9999 BKN017 BKN080 TX13/2618Z TN08/2610Z BECMG 2615/2617 12010G20KT 9999 BKN020 BKN060 PROB40 TEMPO 2620/2702 10015G25KT 4000 RA BKN015 OVC050
Safelog

 

Dauntless Aviation

© 2007-2016 Dauntless Aviation, all rights reserved
Information provided via PilotNav comes from a variety of official and unofficial data sources. As errors are possible, do not use PilotNav for primary flight planning purposes. Verify any information that you receive via PilotNav with current and canonical charts and other official documents. The material in this database is subject to database copyrights held by Dauntless Aviation and may not be copied without the express permission of Dauntless Aviation - licenses for use of part of all of this data are available for purchase; enquire via the Dauntless Aviation helpdesk. A number of mechanisms and markers exist in the database to protect against and identify infringement / copyright. Automated queries against this website are stictly prohibited, and all activity is logged and analyzed.